Location: Prairie View Elementary School
(39.8322°N, 99.5698°W)
Time: 02:54:20
(UTC+00:00)

CZ-4 R/B - Pass Details

Date: 08 December 2019
Orbit: 533 x 597 km, 97.7° (Epoch: 28 January)

Event Time Altitude Azimuth Distance (km) Brightness Sun altitude
Rises 01:01:52 0° 168° (SSE) 2,728 4.9 -20.2°
Reaches altitude 10° 01:04:00 10° 169° (S) 1,828 4.0 -20.6°
Maximum altitude 01:07:57 82° 258° (WSW) 558 1.3 -21.4°
Drops below altitude 10° 01:11:52 10° 346° (NNW) 1,811 4.0 -22.1°
Sets 01:13:59 0° 347° (NNW) 2,701 4.9 -22.5°
